ECMWFNIL_925_rhum_075.txt.gz
RH
49 50 53 53 53 52 51 50 49 48 48 45 43 42 41 40 39 39 37 36 35 34 33 32 32 34 37 41 43 44 45 44 45 45 46 48 49 49 50 51 53 54
44 44 48 52 56 56 54 53 51 50 49 47 46 45 43 41 39 39 38 37 36 37 36 34 32 32 35 39 42 44 44 44 44 45 46 47 48 50 50 51 53 55
38 41 47 53 56 57 56 55 54 54 52 51 49 47 45 42 40 39 37 36 37 39 39 37 34 32 32 35 39 42 43 44 43 43 44 45 47 49 50 52 53 55
40 47 50 50 51 52 53 53 53 54 52 51 50 48 47 44 41 39 37 36 38 39 40 39 36 32 31 33 36 40 42 43 43 43 44 45 46 49 50 52 54 56
45 48 49 50 53 52 51 51 50 51 51 51 52 53 51 47 43 40 38 37 38 39 40 39 37 33 32 32 35 39 41 43 44 44 45 46 46 49 50 52 55 58
51 54 56 56 52 46 44 45 47 52 56 61 65 67 63 54 47 42 40 39 39 39 40 40 38 35 34 34 35 37 39 41 43 45 46 48 47 48 51 53 56 59
61 62 56 47 39 34 31 36 51 68 76 81 84 82 79 70 57 47 42 41 41 41 43 43 40 38 38 38 37 37 38 39 41 44 47 49 49 50 52 54 57 60
60 52 43 39 37 32 33 46 67 79 81 83 82 80 82 81 74 66 57 52 50 51 50 45 41 42 44 42 38 37 39 40 42 44 47 50 52 53 54 55 58 60
48 42 39 41 40 39 49 65 73 72 71 75 75 73 75 77 78 78 74 68 63 58 53 48 46 49 49 45 42 40 40 42 44 45 48 51 54 56 57 58 60 61
44 43 41 42 46 55 67 71 68 66 67 67 67 66 65 66 67 70 75 76 73 66 59 55 54 54 52 49 46 44 44 45 47 49 51 53 55 57 59 60 62 64
46 44 43 49 62 71 71 66 61 60 58 56 57 56 57 60 59 59 64 69 71 71 69 64 60 58 57 55 52 49 49 49 50 53 55 57 58 59 60 62 65 66
46 48 55 66 73 69 64 61 58 58 57 58 60 61 62 66 65 63 63 64 63 67 71 73 71 67 63 60 57 55 53 53 54 56 58 61 62 63 64 65 67 69
51 61 70 72 67 63 62 62 62 63 64 63 65 69 72 75 77 76 75 73 70 68 69 72 73 74 74 70 64 60 58 57 58 60 62 64 66 67 68 68 69 70
65 70 69 63 62 63 65 66 68 69 69 68 70 74 77 79 82 83 82 81 81 78 77 76 73 74 77 76 71 66 64 64 63 65 67 68 70 71 71 73 73 73
68 64 60 60 63 65 67 71 73 74 74 74 76 78 80 81 82 83 83 83 84 83 83 84 83 80 79 80 78 73 70 69 68 69 72 73 75 76 76 77 77 78
62 59 60 64 67 69 72 76 77 78 78 79 81 82 83 83 82 83 85 86 87 86 84 85 87 86 82 81 82 79 76 76 75 74 75 78 80 80 80 81 82 82
64 64 66 69 71 74 78 80 80 81 82 83 84 85 84 86 88 88 87 87 87 86 86 88 89 88 84 81 81 81 78 77 81 83 82 82 83 83 83 84 85 85
70 69 72 75 77 80 81 82 83 84 86 86 87 87 87 89 89 87 86 85 85 86 88 88 87 85 82 80 81 81 79 76 80 88 90 87 85 86 86 86 87 87
74 75 77 79 81 84 84 85 87 87 88 89 89 90 90 89 88 87 86 86 87 89 90 89 88 85 81 80 81 80 80 79 79 86 94 93 88 87 88 88 88 88
79 80 82 83 85 86 86 87 89 90 90 90 91 92 91 89 89 88 86 85 86 87 88 91 94 89 83 83 82 78 77 78 76 81 93 96 91 88 88 88 88 88
83 84 86 87 87 88 89 90 91 91 92 91 91 92 90 90 89 87 86 86 87 89 92 93 92 87 83 83 83 80 80 81 79 81 93 99 94 89 88 87 87 88
87 88 89 89 89 90 92 92 92 93 92 91 91 91 91 91 89 88 89 89 88 90 92 91 90 89 87 83 81 81 85 88 86 86 95 101 97 93 91 89 88 89
89 91 92 92 92 93 94 94 93 93 92 92 93 93 92 92 91 89 89 89 90 91 91 91 92 91 84 79 80 84 89 93 92 92 98 102 99 96 94 91 89 89
91 92 94 95 95 95 95 94 93 93 92 92 92 93 93 92 91 90 89 90 91 90 90 93 94 86 79 79 83 86 91 95 96 96 100 101 99 98 95 92 91 90
91 92 94 96 96 95 94 94 94 92 91 90 89 91 92 90 89 90 91 90 87 85 88 93 90 83 80 84 86 86 89 95 99 100 100 100 101 100 98 95 95 95
92 93 95 95 95 94 92 92 91 90 88 88 89 89 88 88 87 88 90 87 82 84 91 90 84 83 88 88 86 84 86 92 99 101 100 100 101 100 99 99 99 99

ECMWFNIL_925_rhum_078.txt.gz
RH
45 50 55 58 60 59 57 52 46 43 41 38 41 49 57 64 68 70 70 67 61 55 50 45 41 38 37 38 38 38 37 37 38 38 41 44 46 47 49 50 50 51
58 62 64 65 61 54 47 41 37 35 32 32 45 65 77 80 81 79 77 75 71 64 55 48 43 40 38 37 38 40 39 40 40 41 44 45 45 47 48 49 49 50
64 65 66 62 51 42 39 39 39 40 42 52 67 78 79 77 76 74 74 75 75 72 65 56 47 41 38 38 40 41 42 43 44 43 45 46 45 46 47 47 48 49
49 52 54 49 43 41 43 45 47 53 61 70 74 72 68 67 67 65 66 68 70 72 71 66 57 48 42 40 41 43 43 44 45 44 46 47 46 47 47 47 49 49
35 42 46 45 46 46 46 50 59 68 71 70 66 62 59 56 55 55 54 56 57 61 66 69 67 62 56 48 43 43 45 46 46 46 48 49 47 48 48 48 50 50
35 43 46 48 49 48 53 63 71 72 66 62 58 54 52 51 53 53 52 54 54 54 58 64 67 67 65 61 55 51 49 50 50 49 49 49 48 47 48 49 50 50
41 48 49 50 52 58 67 69 65 59 55 55 56 55 59 61 62 61 60 62 64 64 63 61 64 67 66 66 66 63 59 55 53 52 50 49 49 49 49 49 50 50
47 51 51 55 62 67 65 55 50 53 56 59 62 64 68 68 68 68 67 69 73 76 76 71 68 70 69 67 67 66 65 61 55 52 51 51 52 51 50 49 49 51
51 53 56 62 66 63 54 47 52 61 64 67 69 70 72 72 71 71 72 75 79 81 83 82 79 77 75 74 72 69 67 66 63 59 57 57 56 53 50 49 51 52
53 57 62 65 64 60 53 52 58 65 68 70 72 74 75 75 75 77 78 81 83 85 86 87 87 84 80 78 77 75 73 72 72 71 66 62 59 56 53 51 52 54
56 60 65 66 66 63 59 59 63 68 71 73 75 77 78 79 80 82 83 85 86 88 88 87 87 86 86 85 81 80 79 76 75 77 75 70 65 61 58 55 54 56
59 64 68 70 69 65 63 66 69 71 74 76 78 80 81 83 84 84 86 87 87 87 86 87 88 88 90 91 88 87 86 82 79 80 80 77 73 68 63 60 59 59
63 69 73 73 70 68 68 72 74 75 79 80 82 84 85 86 87 87 87 87 88 88 88 90 92 93 92 92 92 91 89 87 85 86 83 79 79 75 69 66 64 62
70 76 77 73 71 72 75 77 78 80 83 84 85 87 87 87 88 88 88 89 91 92 92 92 92 92 91 90 90 89 89 89 88 90 89 83 82 81 76 73 71 68
77 79 77 75 76 78 80 81 83 84 86 87 88 88 88 88 88 90 91 92 92 91 90 89 88 88 88 89 92 92 94 94 91 90 90 86 84 84 80 77 75 72
80 79 78 80 82 83 84 85 86 88 89 89 89 90 89 89 89 90 92 91 91 89 88 88 89 88 90 94 99 100 100 100 97 94 92 90 88 87 82 79 77 76
79 80 82 84 85 87 88 89 88 90 91 90 91 91 90 90 90 90 90 89 90 90 89 90 89 89 94 99 102 102 100 98 98 97 95 92 92 92 89 84 81 78
80 83 86 87 88 89 89 89 90 91 92 92 92 91 90 91 91 90 90 89 90 90 90 90 89 91 98 102 102 101 100 98 96 96 95 92 90 90 91 90 86 82
84 86 89 89 90 91 90 91 92 92 94 93 92 92 91 91 91 90 89 89 89 90 90 90 89 93 100 103 101 100 99 97 96 95 94 92 89 87 89 92 90 86
87 90 92 92 91 90 91 93 93 93 94 92 91 92 91 91 91 89 89 89 89 89 90 90 89 94 101 101 98 97 96 95 97 96 94 93 92 91 93 94 92 90
90 93 93 93 92 92 93 94 94 95 93 91 92 92 91 91 90 90 90 88 88 88 89 89 90 96 101 96 90 92 92 93 95 94 92 92 91 91 94 97 95 92
93 95 94 93 93 94 95 95 95 95 93 92 93 92 91 91 90 90 90 89 87 88 90 90 89 94 99 93 89 90 89 89 91 90 91 94 91 90 93 95 96 94
95 95 94 95 95 96 97 96 95 95 93 93 93 93 91 91 90 89 89 89 88 87 89 90 89 92 96 93 89 89 85 86 90 91 93 95 93 92 94 96 97 95
95 95 95 96 97 97 97 96 95 94 93 92 92 93 92 90 89 90 90 88 87 86 87 90 90 90 92 91 89 85 83 86 92 95 96 95 94 96 97 98 100 97
95 96 97 97 97 96 96 96 95 94 92 91 91 91 91 90 89 90 90 87 85 84 85 88 88 85 86 89 87 81 81 88 94 96 95 94 96 100 100 99 102 100
95 96 97 97 97 96 95 94 94 93 91 90 91 90 90 90 89 90 90 87 84 84 83 84 84 82 85 89 85 80 82 88 93 95 95 95 98 100 100 100 101 101

ECMWFNIL_925_rhum_081.txt.gz
RH
52 40 29 33 44 48 48 49 48 52 59 65 66 65 63 61 59 55 51 47 45 45 43 40 38 37 39 44 53 63 64 61 58 55 54 52 50 49 49 49 48 49
44 30 28 39 47 50 51 51 54 63 68 65 58 53 52 53 52 51 52 52 52 51 47 44 42 40 38 40 49 60 65 65 62 59 57 54 53 53 51 50 50 51
31 28 36 46 50 52 53 56 63 66 59 51 46 47 52 57 57 59 62 63 63 61 57 53 52 50 48 48 51 55 59 63 64 62 60 57 55 55 53 53 52 52
31 37 44 49 52 55 58 63 66 61 54 50 49 50 57 64 66 68 70 71 71 68 66 65 66 66 65 61 60 59 57 57 62 63 62 60 58 56 55 54 54 53
38 45 48 51 55 58 64 67 65 62 59 57 53 53 59 66 69 72 73 74 73 73 73 73 74 76 76 75 74 73 66 62 63 64 65 65 62 61 59 57 57 56
44 48 51 53 58 63 68 68 66 66 63 58 54 56 63 68 72 74 75 75 77 80 81 80 80 79 80 82 82 81 78 75 70 66 68 70 68 66 64 62 61 60
48 51 53 56 61 66 69 69 69 68 60 55 55 61 68 73 75 77 77 79 82 84 85 85 86 85 84 85 85 84 85 85 79 71 69 70 70 69 69 67 65 64
53 55 56 61 65 68 71 71 69 62 56 58 63 68 73 76 79 80 82 84 85 86 88 87 87 86 85 84 84 85 85 86 86 82 77 74 70 70 71 71 68 65
56 59 61 66 70 72 73 70 64 60 61 67 72 75 78 80 83 85 85 87 87 88 88 89 89 86 85 85 84 86 87 87 88 87 86 84 79 75 74 74 73 70
60 61 66 73 76 75 72 68 67 68 72 76 78 80 82 83 86 87 88 90 90 91 89 91 92 88 87 89 88 88 89 89 90 89 88 89 88 86 82 79 79 78
64 64 72 79 77 75 73 73 76 78 79 80 81 83 85 87 89 90 91 92 92 93 92 92 93 91 90 91 91 91 90 90 91 92 92 92 91 93 92 88 85 83
66 67 75 80 76 75 76 78 81 82 82 83 85 88 88 89 91 91 92 93 93 94 94 93 93 92 92 91 90 91 91 89 91 91 92 93 91 91 93 93 90 84
69 69 74 77 76 79 81 81 81 82 85 87 87 90 91 90 92 92 92 93 93 93 93 92 92 92 92 92 90 90 90 89 89 90 91 91 90 90 90 90 92 90
72 71 74 77 80 82 83 83 84 84 87 89 89 91 92 92 92 92 93 92 92 92 92 91 91 90 90 90 90 89 91 92 92 94 95 92 91 92 92 91 90 90
75 75 77 81 84 85 86 88 89 88 89 91 92 92 92 92 92 92 93 92 91 91 90 90 91 90 90 92 95 96 97 99 100 100 97 93 91 90 91 92 91 89
78 79 81 84 87 88 90 92 92 91 92 93 94 93 92 92 92 92 92 92 92 91 90 91 90 89 92 98 101 101 101 101 101 101 97 94 92 90 89 89 89 91
81 83 86 88 90 91 92 93 93 93 93 94 93 93 92 92 92 93 93 92 91 90 90 91 90 90 97 103 102 100 100 100 100 101 99 95 94 96 96 91 88 88
84 87 90 90 92 94 94 94 94 94 94 94 93 93 92 92 93 93 92 91 91 91 91 90 89 93 101 103 101 100 98 94 94 98 99 98 96 97 98 97 94 93
88 90 92 93 95 95 94 95 95 94 94 94 93 93 93 94 94 93 92 92 91 90 91 89 88 94 102 103 101 96 85 76 79 90 98 100 99 97 97 95 94 93
91 93 95 96 97 96 95 96 95 95 94 94 94 94 95 95 94 93 92 92 91 90 91 89 87 93 102 102 93 78 67 69 80 91 98 99 96 96 95 93 92 91
94 96 97 98 97 96 96 96 96 96 95 95 95 95 96 96 94 94 93 91 90 90 90 89 89 95 100 94 80 65 60 73 88 93 98 98 95 94 94 92 90 88
96 98 99 99 97 97 98 97 97 98 96 95 96 96 95 95 94 93 92 91 90 89 91 90 87 93 97 87 77 68 63 73 87 92 97 98 95 93 92 90 89 87
98 99 99 99 99 99 99 98 98 98 96 96 97 96 95 94 94 93 91 92 91 88 90 91 85 90 98 91 81 73 70 79 90 93 96 96 92 89 87 88 89 89
99 101 100 100 100 100 99 99 98 98 97 96 96 97 96 94 93 93 91 90 90 87 88 91 88 90 99 99 89 78 76 82 88 91 94 94 90 88 87 89 91 89
100 100 101 100 100 100 99 99 98 98 96 95 95 96 96 94 92 93 92 88 87 87 86 89 89 86 92 101 95 83 80 83 86 91 97 96 91 89 89 91 92 92
99 100 101 100 100 99 98 98 98 97 95 94 95 94 94 94 92 92 92 88 85 86 84 85 86 83 87 97 93 81 79 83 86 91 97 97 93 92 94 96 95 95

ECMWFNIL_925_rhum_084.txt.gz
RH
37 26 32 41 44 50 55 56 59 64 66 64 63 63 61 58 54 48 45 52 59 65 65 60 54 51 50 46 43 45 47 44 40 40 42 48 53 56 61 65 65 64
28 29 39 43 47 52 55 59 63 67 68 69 68 65 61 56 50 46 49 59 69 70 67 63 59 58 58 58 60 63 64 62 57 53 52 54 56 54 56 61 63 64
28 34 42 46 50 54 58 63 67 68 69 70 67 62 57 52 49 52 58 68 75 73 71 69 66 66 67 68 70 72 73 73 71 68 67 66 64 61 60 63 65 66
35 41 45 50 55 57 63 68 68 70 70 67 61 55 52 52 55 61 65 71 75 74 74 75 73 73 74 73 74 76 77 76 76 77 77 74 71 66 59 58 64 68
41 46 49 54 59 61 67 70 71 72 68 60 55 53 55 60 66 69 70 75 77 77 78 78 78 76 76 78 79 80 81 79 79 80 79 79 79 74 65 59 58 58
48 53 55 57 62 66 70 74 74 71 63 57 59 64 68 71 75 77 79 81 81 82 83 81 80 79 79 83 85 84 84 82 80 80 80 80 78 77 75 72 68 62
57 62 60 60 66 71 75 76 73 67 63 66 71 74 76 78 80 82 84 85 83 84 87 87 88 89 87 87 86 84 84 84 83 83 84 83 81 81 81 81 81 79
63 67 64 63 69 75 77 75 71 68 70 75 77 77 78 80 82 84 84 86 88 90 91 92 93 93 90 88 86 85 86 88 88 88 89 88 86 86 86 86 87 86
66 67 65 66 71 76 77 73 72 75 76 78 79 79 81 82 83 86 86 87 92 94 93 93 94 93 90 87 86 87 87 89 89 88 89 89 88 88 88 88 90 90
68 68 68 68 70 73 75 75 78 79 79 80 81 82 83 84 85 88 89 91 93 95 93 93 95 94 92 90 89 89 90 90 89 87 88 88 87 89 89 88 91 94
69 69 70 70 71 73 76 78 81 82 82 82 82 84 85 86 88 89 92 96 96 96 96 95 96 95 94 94 94 93 92 92 90 88 87 88 87 87 87 88 89 90
72 72 72 73 74 77 79 81 82 83 84 85 84 87 88 89 91 93 95 98 98 97 97 96 96 96 95 94 93 93 92 91 89 88 86 86 86 85 85 85 86 87
75 75 76 77 77 79 81 83 84 85 87 88 88 90 92 93 94 95 96 97 97 97 97 96 95 94 93 94 93 92 91 89 89 89 88 87 87 87 86 87 87 87
78 79 79 80 81 82 85 87 88 90 91 92 92 93 95 95 94 95 97 97 96 97 97 96 95 95 94 93 92 91 91 92 93 93 94 95 95 94 92 92 92 90
81 82 81 82 84 86 89 92 92 94 95 95 95 96 95 95 95 95 96 96 97 97 96 96 95 94 94 94 95 96 97 98 99 99 100 100 100 100 98 97 96 96
83 83 83 85 88 90 92 95 95 96 98 97 96 96 95 95 95 95 96 96 96 96 95 96 95 92 95 100 102 101 100 100 100 100 101 101 99 97 95 94 93 93
84 85 87 89 91 93 94 97 98 99 99 98 96 96 95 95 95 96 97 97 97 97 95 95 94 93 99 105 103 100 99 99 100 100 100 100 100 97 95 95 92 90
85 88 91 91 94 96 97 99 99 99 98 97 96 96 96 97 97 97 98 97 97 97 95 95 93 95 103 105 102 101 93 85 89 96 98 98 98 98 96 95 94 91
88 91 94 94 96 98 98 99 99 98 97 96 96 97 98 98 98 98 97 97 97 96 96 95 92 95 103 103 100 95 83 78 88 96 99 101 99 98 97 95 95 95
92 94 95 96 97 98 98 99 99 98 97 97 97 98 99 99 98 98 97 96 96 95 95 95 90 93 102 102 99 92 79 82 97 100 100 103 100 98 97 95 95 94
94 96 97 98 98 98 100 100 99 99 98 98 99 99 100 100 98 98 97 95 96 95 96 95 89 94 102 100 97 97 88 91 103 103 100 102 100 98 96 94 94 93
96 98 99 100 99 99 101 100 100 100 99 99 100 99 99 99 98 98 97 96 95 94 96 95 87 90 100 96 92 98 98 98 102 102 101 101 98 96 94 92 94 94
98 101 101 100 100 100 102 101 100 101 100 99 101 101 100 99 98 97 96 96 96 93 94 95 86 86 98 98 94 97 99 99 102 102 100 100 96 94 94 93 92 93
99 101 100 101 101 101 102 101 101 102 101 100 101 101 100 99 97 98 96 95 96 92 91 95 90 86 96 103 100 97 97 99 101 100 97 96 95 93 93 92 91 91
98 99 100 101 101 101 101 102 102 102 101 101 101 100 100 98 97 98 97 93 92 91 89 93 92 86 88 99 103 98 93 92 95 97 97 96 95 94 94 93 92 91
98 99 100 100 101 101 101 101 102 102 101 100 100 99 99 99 97 97 96 93 90 89 88 88 89 84 82 95 105 98 89 89 93 96 98 98 97 95 96 95 92 91

ECMWFNIL_925_rhum_090.txt.gz
RH
32 31 34 33 32 34 36 36 36 42 48 50 52 53 53 52 50 47 46 46 48 50 51 51 52 54 56 55 54 53 52 51 50 49 47 47 45 44 45 45 46 46
32 35 38 36 35 38 40 41 40 44 50 53 55 57 55 53 51 50 50 51 53 54 55 56 57 60 61 60 60 59 59 57 55 54 53 52 51 49 49 48 48 48
37 39 40 39 40 41 44 45 42 43 50 54 57 58 55 53 53 54 55 57 58 58 58 59 61 63 64 64 64 64 63 61 59 58 57 57 57 55 54 53 52 52
40 40 41 42 44 45 46 47 45 45 49 53 56 58 56 56 57 58 59 60 60 60 61 62 63 64 64 64 65 65 64 63 62 60 60 60 60 60 60 59 58 58
40 41 42 44 46 47 47 47 48 49 51 53 55 57 59 60 60 60 60 60 61 62 62 63 64 64 65 64 63 63 63 62 62 61 61 61 60 62 62 62 63 65
40 41 43 45 47 48 48 49 51 53 55 57 58 58 59 59 59 60 60 60 60 61 60 61 63 63 64 64 63 63 63 62 63 63 63 63 62 62 63 65 67 70
41 42 44 46 47 49 50 51 54 56 57 59 60 58 57 57 58 59 60 58 57 59 59 59 61 60 61 63 62 63 66 65 66 67 66 65 65 64 64 67 70 72
43 44 46 49 50 51 53 54 56 57 58 59 58 58 57 57 59 61 62 61 61 62 62 60 61 62 62 62 61 64 70 71 71 71 69 68 67 67 67 69 71 72
46 47 49 52 53 53 54 55 57 57 59 60 59 60 60 59 61 63 64 65 66 68 69 67 67 67 67 68 70 74 78 79 77 76 75 73 73 73 73 73 73 73
50 51 51 52 53 54 55 56 57 57 57 59 60 62 61 60 63 65 66 68 69 71 73 72 71 71 73 76 78 81 82 82 83 83 83 83 84 84 84 84 84 83
52 51 51 53 54 55 56 56 56 55 56 59 62 63 64 66 68 70 72 75 76 77 78 78 78 78 80 82 83 83 83 83 85 88 89 91 92 93 93 94 95 93
51 51 52 54 56 57 57 56 54 55 59 62 65 68 71 74 76 78 80 83 84 84 84 85 85 85 86 88 88 87 86 87 90 93 94 95 96 97 97 97 98 97
51 52 54 56 57 58 56 55 56 60 64 66 67 71 75 79 83 86 87 88 89 89 90 90 91 92 93 93 93 92 92 95 97 99 99 98 98 98 97 98 98 99
53 55 58 58 56 55 56 60 63 66 68 70 72 78 82 86 91 93 93 93 93 93 94 95 97 98 98 97 97 97 98 99 100 100 100 100 99 99 99 99 99 99
56 59 60 57 55 57 61 66 67 69 71 74 79 87 92 94 96 96 97 99 99 98 98 99 99 99 99 99 100 100 100 100 101 100 100 100 100 100 100 100 100 100
60 61 58 57 59 63 67 70 72 75 80 84 89 94 96 97 98 99 101 102 101 100 100 100 100 100 101 100 100 100 100 100 100 100 100 101 101 100 100 100 100 100
63 61 59 61 68 73 76 81 84 88 92 94 97 98 98 100 101 101 102 101 101 102 101 101 101 100 101 101 98 98 101 101 100 100 100 101 101 99 99 99 98 98
64 62 64 70 77 82 87 91 94 97 99 99 100 100 100 102 102 101 101 100 103 104 102 103 104 102 104 102 94 93 96 97 100 102 99 100 100 99 100 100 98 98
65 65 72 81 87 91 94 97 99 101 102 103 103 102 102 104 102 101 100 100 102 102 100 103 102 100 104 99 91 93 86 81 93 103 100 99 101 100 100 100 99 100
67 73 83 91 94 96 99 100 102 104 104 104 105 104 104 104 101 101 100 100 101 100 100 103 99 99 103 97 94 93 74 65 88 103 100 100 101 99 100 100 99 100
74 84 92 97 98 99 100 100 103 105 103 103 104 104 103 101 100 101 100 100 101 101 102 102 98 101 103 93 88 82 66 71 97 104 99 101 100 99 101 100 100 100
84 93 98 99 99 100 100 100 102 103 101 101 102 102 101 100 100 100 99 100 101 101 104 103 96 99 101 89 79 71 67 87 106 101 99 103 100 99 100 98 100 102
92 98 100 100 100 101 101 101 100 101 101 101 102 101 101 100 100 100 99 101 101 100 106 106 96 96 95 79 66 62 71 96 107 99 99 102 97 97 97 94 97 99
97 100 100 101 103 102 101 101 100 100 102 101 101 101 101 100 100 100 99 100 102 101 104 105 98 92 86 69 55 55 73 97 106 100 99 98 94 94 94 92 94 95
100 100 100 101 103 101 101 100 100 101 101 101 100 100 101 100 99 100 101 101 102 99 97 100 95 86 79 70 60 64 80 97 102 100 100 98 94 93 92 91 91 91
99 100 101 102 101 101 102 101 100 101 100 100 101 99 100 101 100 102 105 102 99 97 93 92 90 84 81 79 74 76 87 99 103 101 99 98 95 92 90 86 83 84

ECMWFNIL_925_rhum_093.txt.gz
RH
30 30 31 31 29 29 29 28 29 31 31 29 28 32 38 42 44 43 40 39 40 42 42 42 43 44 45 45 46 45 45 43 42 41 39 39 38 37 36 36 36 36
32 31 31 30 30 31 31 31 32 33 33 32 31 33 37 42 45 44 43 43 45 45 46 46 46 48 49 49 49 49 50 49 48 47 46 45 43 41 41 40 39 39
32 31 30 30 31 32 32 33 34 34 33 34 35 36 38 42 44 45 46 47 48 48 48 48 49 50 50 51 51 52 52 51 50 50 49 49 48 46 45 45 44 44
32 31 30 30 31 33 34 34 34 34 34 35 38 40 42 45 45 44 45 47 47 48 48 48 49 49 49 50 51 52 52 51 51 50 49 50 49 50 50 49 49 50
33 31 31 31 32 33 34 35 35 36 37 39 41 44 45 46 46 44 45 46 46 47 47 48 48 49 49 48 47 47 47 49 50 49 49 50 50 51 51 51 53 54
33 32 32 32 32 35 36 37 38 39 41 43 44 46 47 46 46 46 46 45 46 47 47 48 49 49 48 47 45 44 43 44 46 47 47 49 51 53 53 54 56 56
34 33 33 34 35 37 38 39 40 42 43 45 47 48 48 48 48 46 45 44 45 46 46 47 48 47 46 47 48 48 46 46 48 49 48 50 52 53 54 55 57 58
35 35 35 36 38 38 39 40 41 42 44 47 48 47 48 50 50 48 46 45 46 45 45 47 49 49 50 51 53 55 56 56 56 56 56 56 55 56 56 57 57 58
37 37 37 38 39 39 39 41 42 44 46 46 47 47 48 50 51 50 48 46 46 46 47 52 54 54 54 56 58 59 61 62 63 63 65 65 64 65 64 63 63 63
38 39 39 38 38 39 40 43 45 47 47 46 46 47 49 50 50 50 50 50 51 52 55 57 59 60 61 62 63 64 65 66 67 70 72 73 73 74 74 75 76 76
39 39 39 39 39 40 42 45 46 47 47 47 49 50 50 51 51 52 54 57 59 59 60 60 61 64 67 69 70 71 72 72 73 75 77 79 80 80 82 85 86 86
40 39 39 40 41 43 46 47 46 47 47 48 50 53 54 54 57 59 60 62 62 62 63 63 64 66 70 74 76 76 77 78 80 82 83 84 86 87 88 90 92 92
39 39 40 42 44 47 49 48 49 49 46 45 50 56 58 61 65 68 68 69 69 69 70 70 71 75 78 81 83 83 85 86 88 91 91 91 91 91 91 92 92 93
40 40 42 45 48 50 49 49 51 50 47 48 53 59 64 68 71 74 76 77 77 77 78 78 81 85 86 88 89 89 92 96 97 97 97 97 96 94 94 94 94 95
41 43 47 50 51 49 49 51 51 51 52 56 61 66 71 76 78 80 82 85 86 86 87 88 92 94 94 96 96 96 98 100 100 101 100 99 100 99 97 98 98 98
44 47 50 51 51 48 48 51 53 57 63 69 75 79 84 87 88 90 92 94 96 97 97 99 99 99 100 99 95 95 100 102 100 100 102 100 100 100 100 100 100 99
47 51 52 52 50 47 48 55 63 71 78 83 88 91 93 95 96 99 100 100 101 100 101 101 99 100 103 94 81 80 91 102 104 101 100 101 100 99 98 96 94 93
51 54 55 54 51 51 58 69 78 84 89 92 96 97 99 100 100 101 102 101 102 101 101 100 98 102 102 86 70 68 73 83 97 102 101 101 101 99 96 94 91 89
55 57 56 54 55 62 73 82 87 92 95 97 100 100 101 101 100 101 101 101 100 98 100 101 97 100 101 83 69 69 64 62 81 99 102 100 101 100 98 98 98 97
58 59 56 57 66 77 85 90 94 97 98 99 100 100 101 100 100 101 100 98 95 95 100 102 94 96 100 81 64 63 58 57 77 99 103 101 101 101 100 100 101 100
60 58 59 67 78 87 92 95 98 99 99 100 100 100 100 100 100 100 99 97 94 94 99 98 92 97 96 75 58 54 52 62 86 102 103 101 100 100 100 101 101 100
60 60 66 79 88 93 97 99 100 100 100 101 100 100 100 100 99 100 100 99 98 97 100 96 91 95 90 69 57 54 53 73 98 104 101 101 101 100 100 99 99 100
61 66 78 90 95 98 100 100 100 100 100 100 100 100 100 100 100 100 99 100 100 98 101 98 91 93 88 66 54 57 64 83 102 103 99 100 98 96 97 96 95 96
69 78 89 96 99 100 100 100 100 100 100 100 100 100 101 100 100 101 99 100 101 98 101 103 96 94 90 71 55 59 71 86 101 104 100 97 93 90 90 89 89 90
80 89 96 99 100 100 100 100 101 100 100 101 100 100 101 100 100 101 99 99 101 100 100 103 96 88 86 80 67 62 68 82 98 103 100 96 91 88 89 88 87 86
89 95 99 100 100 100 100 100 100 100 100 100 101 100 100 101 99 100 101 101 103 100 95 95 93 85 86 89 81 68 67 82 99 102 98 97 95 92 93 89 83 79

ECMWFNIL_925_rhum_096.txt.gz
RH
34 33 31 30 30 30 30 30 29 30 31 31 31 31 31 32 33 36 39 41 41 41 42 44 45 45 45 46 47 47 48 48 48 48 48 48 48 46 45 44 42 41
32 32 31 30 29 29 29 29 30 31 32 31 32 32 33 35 36 39 41 41 41 42 43 44 45 46 46 47 47 47 48 48 49 50 50 50 49 49 48 48 47 46
32 32 31 30 29 28 28 29 31 32 32 32 32 34 35 38 40 42 43 43 43 43 43 44 45 46 47 47 47 48 48 48 48 48 48 49 49 50 49 50 50 50
32 32 32 31 30 30 29 30 32 33 33 34 35 37 38 41 43 44 44 43 43 43 43 44 44 45 47 47 48 49 48 48 47 46 45 45 46 48 49 49 50 51
32 33 33 32 31 31 31 32 33 34 36 37 38 40 41 43 45 45 46 45 45 45 44 44 44 45 46 46 47 48 47 47 47 48 47 46 46 47 48 48 49 51
34 34 33 33 32 32 33 34 35 36 37 39 40 42 44 45 46 45 46 47 48 48 46 45 46 45 45 46 47 49 49 49 50 51 53 53 52 51 51 51 51 52
34 34 34 35 34 34 35 36 37 37 38 39 41 43 44 45 45 46 47 49 50 50 49 48 48 48 48 48 50 53 54 54 55 55 56 58 58 58 57 56 56 56
33 34 35 35 35 36 37 37 37 38 39 41 43 44 45 45 46 47 48 49 50 50 50 51 53 53 53 53 54 57 60 61 61 60 60 60 61 61 61 62 62 62
33 34 35 36 37 37 37 37 37 38 40 43 45 46 46 47 48 50 51 51 52 53 53 55 57 59 59 58 59 60 63 66 67 66 66 66 65 66 66 67 68 69
34 35 36 37 37 37 37 38 39 40 43 44 45 47 47 48 49 51 53 55 57 58 59 60 60 61 61 61 61 62 64 67 69 70 70 71 71 72 72 73 75 76
37 37 37 37 37 37 38 39 41 44 46 46 47 48 48 47 47 50 55 59 62 64 65 65 65 64 65 66 66 67 68 68 69 70 71 74 75 76 77 78 81 82
38 38 37 37 37 38 40 41 45 47 48 49 49 49 49 48 50 54 59 63 67 70 71 71 71 71 71 71 70 70 71 71 72 74 77 79 80 81 82 84 85 87
38 38 38 38 38 40 43 46 48 49 49 50 51 51 51 52 57 62 64 67 70 72 74 75 75 74 74 74 74 74 74 75 76 78 81 83 84 86 88 90 90 91
37 38 39 39 41 43 47 49 50 49 49 49 52 54 56 60 65 68 70 72 74 77 79 78 78 80 79 78 77 74 72 74 78 83 86 88 90 91 92 93 93 94
38 40 41 42 44 46 49 51 50 49 49 52 57 60 62 67 71 74 78 80 82 85 85 84 86 86 82 82 83 80 81 86 89 93 97 97 98 97 96 97 97 97
40 41 42 44 47 49 52 53 52 51 53 57 62 66 70 75 79 82 85 86 88 89 89 90 91 85 83 91 91 85 89 98 100 101 102 101 100 101 100 100 100 99
43 44 45 47 50 52 55 55 55 56 58 62 70 76 80 83 85 88 88 88 91 91 91 93 89 86 90 92 82 71 73 85 95 102 105 102 100 101 101 100 100 98
46 47 48 51 54 56 57 58 59 62 67 72 79 83 85 86 88 90 89 90 92 92 93 91 85 90 93 81 68 62 61 68 82 93 103 104 101 101 101 100 100 99
47 49 52 55 57 59 60 61 65 70 75 81 85 86 88 90 91 91 90 91 92 90 91 89 83 89 91 76 67 66 61 60 69 81 97 104 100 101 102 100 100 100
51 53 55 58 59 61 63 66 71 77 82 86 88 89 92 92 92 93 91 91 92 89 91 90 82 85 89 77 66 64 59 58 67 84 101 104 101 102 102 101 101 100
55 57 58 59 59 62 66 71 77 83 87 89 90 91 94 93 94 95 93 92 93 90 91 91 82 83 89 78 64 59 57 59 77 98 105 100 100 102 100 99 100 99
59 60 60 61 62 67 72 77 83 88 90 92 93 94 95 95 95 96 94 94 93 91 93 91 83 86 93 82 66 58 53 62 86 103 103 101 102 99 95 96 97 97
61 61 62 64 68 73 79 84 89 93 94 95 96 97 97 97 97 97 96 96 95 94 95 93 87 91 94 81 65 55 55 74 97 103 102 104 102 97 96 96 95 96
63 63 65 68 73 79 85 90 93 95 96 97 98 99 99 99 99 99 98 98 98 96 96 96 93 95 95 80 59 49 59 84 104 104 101 103 101 99 99 96 93 93
66 68 70 74 79 85 90 94 96 98 99 100 100 100 101 100 101 102 101 99 98 96 96 98 95 92 92 81 62 54 65 83 99 104 103 103 102 100 98 95 95 94
72 75 78 83 87 91 94 96 97 100 101 101 101 101 101 101 101 102 101 99 99 97 95 96 94 90 91 88 78 75 78 83 95 105 104 101 101 100 99 100 97 92